Weather History for KORC - January, 2013

Change the Weather History Date:

Wednesday, January 23, 2013

  Actual Average (WUND) Record (WUND)
Temperature  
Mean Temperature 10 °F -  
Max Temperature 19 °F - - (-1)
Min Temperature -2 °F - - (-1)
Degree Days  
Heating Degree Days 56    
Moisture  
Dew Point 3 °F    
Average Humidity 73    
Maximum Humidity 92    
Minimum Humidity 53    
Precipitation  
Precipitation 0.00 in - - ()
Sea Level Pressure  
Sea Level Pressure 30.27 in    
Wind  
Wind Speed 10 mph (NNW)    
Max Wind Speed 17 mph    
Max Gust Speed 24 mph    
Visibility 10 miles    
Events      
Averages and records for this station are not official NWS values.
T = Trace of Precipitation, MM = Missing Value Source: NWS Daily Summary

Daily Weather History Graph

Daily Weather History Graph

Search for Another Location

Airport or City:

Trip Planner

Search our weather history database for the weather conditions in past years. The results will help you decide how hot, cold, wet, or windy it might be!

Date:

Astronomy

Jan. 23, 2013 Rise Set
Actual Time 7:47 AM CST 5:25 PM CST
Civil Twilight 7:16 AM CST 5:56 PM CST
Nautical Twilight 6:42 AM CST 6:30 PM CST
Astronomical Twilight 6:08 AM CST 7:04 PM CST
Moon 2:35 PM CST (1/23) 5:00 AM CST (1/23)
Length of Visible Light 10h 39m
Length of Day
9h 38m
Waxing Gibbous, 89% of the Moon is Illuminated
Jan 23
Waxing Gibbous
Jan 26
Full
Feb 3
Last Quarter
Feb 10
New
Feb 17
First Quarter

Hourly Weather History & Observations

Time (CST) Temp. Windchill Dew Point Humidity Pressure Visibility Wind Dir Wind Speed Gust Speed Precip Events Conditions
12:15 AM 12.2 °F -3.1 °F 6.8 °F 79% 30.16 in 10.0 mi SSW 13.8 mph - N/A   Overcast
12:35 AM 12.2 °F -1.0 °F 6.8 °F 79% 30.14 in 10.0 mi South 10.4 mph - N/A   Overcast
12:55 AM 10.4 °F -2.4 °F 6.8 °F 85% 30.14 in 10.0 mi South 9.2 mph - N/A   Scattered Clouds
1:15 AM 10.4 °F -3.3 °F 6.8 °F 85% 30.13 in 10.0 mi SSW 10.4 mph - N/A   Clear
1:35 AM 10.4 °F -3.3 °F 6.8 °F 85% 30.12 in 10.0 mi South 10.4 mph - N/A   Clear
1:55 AM 10.4 °F -2.4 °F 6.8 °F 85% 30.12 in 10.0 mi SSW 9.2 mph - N/A   Clear
2:15 AM 10.4 °F -1.5 °F 6.8 °F 85% 30.12 in 10.0 mi SSW 8.1 mph - N/A   Clear
2:35 AM 10.4 °F -2.4 °F 6.8 °F 85% 30.11 in 10.0 mi SSW 9.2 mph - N/A   Clear
2:55 AM 10.4 °F -2.4 °F 6.8 °F 85% 30.11 in 10.0 mi SSW 9.2 mph - N/A   Clear
3:15 AM 10.4 °F -2.4 °F 6.8 °F 85% 30.11 in 10.0 mi SSW 9.2 mph - N/A   Clear
3:35 AM 10.4 °F 0.8 °F 6.8 °F 85% 30.11 in 10.0 mi SW 5.8 mph - N/A   Clear
3:55 AM 10.4 °F 2.2 °F 6.8 °F 85% 30.11 in 10.0 mi SW 4.6 mph - N/A   Clear
4:15 AM 8.6 °F 2.0 °F 6.8 °F 92% 30.10 in 10.0 mi SW 3.5 mph - N/A   Clear
4:35 AM 8.6 °F 2.0 °F 3.2 °F 79% 30.11 in 10.0 mi West 3.5 mph - N/A   Clear
4:55 AM 8.6 °F - 5.0 °F 85% 30.11 in 10.0 mi Calm Calm - N/A   Clear
5:15 AM 8.6 °F 2.0 °F 6.8 °F 92% 30.11 in 10.0 mi West 3.5 mph - N/A   Clear
5:35 AM 8.6 °F 2.0 °F 6.8 °F 92% 30.12 in 10.0 mi WNW 3.5 mph - N/A   Clear
5:55 AM 8.6 °F -1.3 °F 6.8 °F 92% 30.12 in 10.0 mi WNW 5.8 mph - N/A   Clear
6:15 AM 6.8 °F -3.5 °F 3.2 °F 85% 30.13 in 10.0 mi WNW 5.8 mph - N/A   Clear
6:35 AM 6.8 °F -2.0 °F 5.0 °F 92% 30.13 in 10.0 mi NW 4.6 mph - N/A   Clear
6:55 AM 6.8 °F -3.5 °F 3.2 °F 85% 30.14 in 10.0 mi NW 5.8 mph - N/A   Clear
7:15 AM 6.8 °F -2.0 °F 1.4 °F 79% 30.15 in 7.0 mi NW 4.6 mph - N/A   Clear
7:35 AM 8.6 °F -1.3 °F 6.8 °F 92% 30.16 in 10.0 mi NW 5.8 mph - N/A   Clear
7:55 AM 12.2 °F 0.7 °F 8.6 °F 85% 30.15 in 10.0 mi NNW 8.1 mph - N/A   Clear
8:15 AM 12.2 °F -0.2 °F 8.6 °F 85% 30.16 in 10.0 mi NNW 9.2 mph - N/A   Clear
8:35 AM 10.4 °F -1.5 °F 8.6 °F 92% 30.17 in 10.0 mi NNW 8.1 mph - N/A   Clear
8:55 AM 12.2 °F 0.7 °F 6.8 °F 79% 30.18 in 10.0 mi NNW 8.1 mph - N/A   Clear
9:15 AM 10.4 °F -1.5 °F 6.8 °F 85% 30.19 in 10.0 mi NW 8.1 mph - N/A   Clear
9:35 AM 12.2 °F 0.7 °F 8.6 °F 85% 30.19 in 10.0 mi NW 8.1 mph - N/A   Clear
9:55 AM 15.8 °F 4.2 °F 10.4 °F 79% 30.21 in 10.0 mi NW 9.2 mph - N/A   Clear
10:15 AM 15.8 °F 4.2 °F 10.4 °F 79% 30.22 in 10.0 mi NW 9.2 mph - N/A   Clear
10:35 AM 15.8 °F 3.4 °F 10.4 °F 79% 30.24 in 10.0 mi NNW 10.4 mph 16.1 mph N/A   Clear
10:55 AM 17.6 °F 7.3 °F 10.4 °F 73% 30.24 in 10.0 mi NNW 8.1 mph - N/A   Clear
11:15 AM 17.6 °F 5.7 °F 10.4 °F 73% 30.25 in 10.0 mi NNW 10.4 mph - N/A   Scattered Clouds
11:35 AM 19.4 °F 7.2 °F 10.4 °F 68% 30.25 in 10.0 mi North 11.5 mph - N/A   Scattered Clouds
11:55 AM 19.4 °F 7.2 °F 10.4 °F 68% 30.26 in 10.0 mi NNW 11.5 mph 17.3 mph N/A   Scattered Clouds
12:15 PM 19.4 °F 8.6 °F 10.4 °F 68% 30.27 in 10.0 mi NNW 9.2 mph 16.1 mph N/A   Scattered Clouds
12:35 PM 19.4 °F 8.6 °F 10.4 °F 68% 30.26 in 10.0 mi NNW 9.2 mph 20.7 mph N/A   Mostly Cloudy
12:55 PM 19.4 °F 5.5 °F 10.4 °F 68% 30.27 in 10.0 mi NNW 15.0 mph - N/A   Overcast
1:15 PM 19.4 °F 6.6 °F 10.4 °F 68% 30.28 in 10.0 mi NNW 12.7 mph 19.6 mph N/A   Mostly Cloudy
1:35 PM 19.4 °F 6.0 °F 8.6 °F 63% 30.28 in 10.0 mi NNW 13.8 mph 20.7 mph N/A   Mostly Cloudy
1:55 PM 19.4 °F 6.6 °F 8.6 °F 63% 30.27 in 10.0 mi NNW 12.7 mph 20.7 mph N/A   Scattered Clouds
2:15 PM 17.6 °F 3.2 °F 8.6 °F 68% 30.28 in 10.0 mi NW 15.0 mph 18.4 mph N/A   Clear
2:35 PM 17.6 °F 5.7 °F 6.8 °F 63% 30.29 in 10.0 mi NNW 10.4 mph 20.7 mph N/A   Clear
2:55 PM 17.6 °F 3.2 °F 6.8 °F 63% 30.30 in 10.0 mi NNW 15.0 mph 24.2 mph N/A   Clear
3:15 PM 17.6 °F 2.2 °F 5.0 °F 58% 30.30 in 10.0 mi NNW 17.3 mph 23.0 mph N/A   Clear
3:35 PM 17.6 °F 2.2 °F 3.2 °F 53% 30.31 in 10.0 mi North 17.3 mph 20.7 mph N/A   Clear
3:55 PM 15.8 °F -0.2 °F 3.2 °F 58% 30.32 in 10.0 mi North 17.3 mph - N/A   Clear
4:15 PM 15.8 °F 2.7 °F 3.2 °F 58% 30.36 in 10.0 mi NNW 11.5 mph - N/A   Clear
4:35 PM 15.8 °F 2.1 °F 3.2 °F 58% 30.37 in 10.0 mi NNW 12.7 mph 18.4 mph N/A   Clear
4:55 PM 12.2 °F -2.5 °F 3.2 °F 67% 30.37 in 10.0 mi NNW 12.7 mph 21.9 mph N/A   Clear
5:15 PM 12.2 °F -1.0 °F 1.4 °F 62% 30.38 in 10.0 mi North 10.4 mph 16.1 mph N/A   Scattered Clouds
5:35 PM 10.4 °F -5.4 °F 1.4 °F 67% 30.39 in 10.0 mi North 13.8 mph 18.4 mph N/A   Scattered Clouds
5:55 PM 10.4 °F -4.1 °F 1.4 °F 67% 30.41 in 10.0 mi NNE 11.5 mph 17.3 mph N/A   Clear
6:15 PM 8.6 °F -7.7 °F -0.4 °F 67% 30.41 in 10.0 mi North 13.8 mph - N/A   Clear
6:35 PM 8.6 °F -7.0 °F -0.4 °F 67% 30.42 in 10.0 mi North 12.7 mph 19.6 mph N/A   Clear
6:55 PM 6.8 °F -8.6 °F -0.4 °F 72% 30.44 in 10.0 mi North 11.5 mph 18.4 mph N/A   Clear
7:15 PM 6.8 °F -10.0 °F -2.2 °F 67% 30.44 in 10.0 mi NNE 13.8 mph 20.7 mph N/A   Clear
7:35 PM 5.0 °F -11.6 °F -4.0 °F 66% 30.44 in 10.0 mi NNE 12.7 mph 17.3 mph N/A   Clear
7:55 PM 3.2 °F -13.9 °F -5.8 °F 66% 30.46 in 10.0 mi NNE 12.7 mph 17.3 mph N/A   Clear
8:15 PM 3.2 °F -13.1 °F -5.8 °F 66% 30.47 in 10.0 mi North 11.5 mph 19.6 mph N/A   Clear
8:35 PM 3.2 °F -12.2 °F -7.6 °F 61% 30.47 in 10.0 mi North 10.4 mph - N/A   Clear
8:55 PM 1.4 °F -16.1 °F -7.6 °F 66% 30.46 in 10.0 mi North 12.7 mph 18.4 mph N/A   Clear
9:15 PM 1.4 °F -14.5 °F -9.4 °F 61% 30.47 in 10.0 mi NNE 10.4 mph 16.1 mph N/A   Clear
9:35 PM 1.4 °F -14.5 °F -9.4 °F 61% 30.47 in 10.0 mi NNE 10.4 mph - N/A   Clear
9:55 PM 1.4 °F -16.1 °F -11.2 °F 56% 30.47 in 10.0 mi NNE 12.7 mph 19.6 mph N/A   Clear
10:15 PM -0.4 °F -17.6 °F -11.2 °F 60% 30.48 in 10.0 mi North 11.5 mph 17.3 mph N/A   Clear
10:35 PM -0.4 °F -18.4 °F -11.2 °F 60% 30.49 in 10.0 mi NNE 12.7 mph 17.3 mph N/A   Clear
10:55 PM -0.4 °F -17.6 °F -11.2 °F 60% 30.49 in 10.0 mi NNE 11.5 mph 17.3 mph N/A   Clear
11:15 PM -0.4 °F -15.7 °F -13.0 °F 55% 30.50 in 10.0 mi NNE 9.2 mph 18.4 mph N/A   Clear
11:35 PM -0.4 °F -15.7 °F -13.0 °F 55% 30.51 in 10.0 mi NE 9.2 mph - N/A   Clear
11:55 PM -2.2 °F -16.8 °F -13.0 °F 60% 30.51 in 10.0 mi NE 8.1 mph - N/A   Clear